Regional Weather Roundup
Issued by NWS Cleveland, OH

Home | Current Version | Previous Version | Graphics & Text | Print | Product List | Glossary On
Versions: 1 2 3 4 5 6 7 8 9 10 11 12 13 14 15 16 17 18 19 20 21 22 23 24 25 26 27 28 29 30 31 32 33 34 35 36 37 38 39 40 41 42 43 44 45 46 47 48 49 50
836
ASUS41 KCLE 232312
RWRCLE
OHIO REGIONAL WEATHER ROUNDUP
NATIONAL WEATHER SERVICE WILMINGTON, OH
700 PM EDT TUE MAY 23 2017

NOTE: "FAIR" INDICATES FEW OR NO CLOUDS BELOW 12,000 FEET WITH NO
SIGNIFICANT WEATHER AND/OR OBSTRUCTIONS TO VISIBILITY.

OHZ001>008-015>018-024>027-034-035-043-044-240000-
   NORTHWEST OHIO

CITY           SKY/WX    TMP DP  RH WIND       PRES   REMARKS
DEFIANCE       PTSUNNY   71  47  42 N12       29.69F
FINDLAY        FAIR      74  45  35 E7        29.68F
TOLEDO EXPRESS FAIR      69  49  48 E12       29.70F
TOLEDO EXEC    PTSUNNY   68  49  50 E9        29.71F
LIMA           FAIR      70  50  49 NE6       29.69F
$$

OHZ009>014-019>023-028>033-038-089-240000-
   NORTHEAST OHIO

CITY           SKY/WX    TMP DP  RH WIND       PRES   REMARKS
CLE-HOPKINS    CLOUDY    67  50  54 N8        29.73F
CLE-LAKEFRONT  FAIR      62  53  72 NE15      29.70F
CUY CO. ARPT   MOSUNNY   73  45  35 SE12      29.72F
LORAIN-ELYRIA  FAIR      65  46  50 NE12      29.72F
ASHTABULA      FAIR      69  49  48 NE7       29.75S
AKRON-CANTON   PTSUNNY   71  48  43 SE13      29.72F
WOOSTER        FAIR      71  49  45 SE8       29.71F
MANSFIELD      FAIR      70  48  45 E8        29.72S
YOUNGSTOWN     CLOUDY    70  45  40 SE8       29.74F
$$

OHZ042-051>053-060>062-070>072-077>081-240000-
  SOUTHWEST OHIO

CITY           SKY/WX    TMP DP  RH WIND       PRES   REMARKS
CINC-COVINGTON CLOUDY    72  53  51 CALM      29.66F
CINC-LUNKEN    FAIR      72  54  53 SE6       29.66F
HAMILTON       PTSUNNY   73  50  44 E6        29.67F
DAYTON         PTSUNNY   71  48  43 E8        29.68F
WRIGHT-PAT AFB CLOUDY    73  43  34 E5        29.67F
DAYTON GENERAL PTSUNNY   72  48  42 CALM      29.67F
WILMINGTON     FAIR      69  50  50 SE7       29.68F
$$

OHZ036-037-039>041-045>050-054>059-063>069-073>076-082>088-240000-
  CENTRAL AND SOUTHEAST OHIO

CITY           SKY/WX    TMP DP  RH WIND       PRES   REMARKS
COLUMBUS       CLOUDY    73  47  39 SE5       29.68F
OSU AIRPORT    FAIR      72  46  39 SE9       29.69S
BOLTON FIELD   SUNNY     70  48  46 SE3       29.69F
RICKENBACK AFB FAIR      71  47  42 SE6       29.69S
NEWARK         FAIR      72  48  42 SE7       29.69F
MARION         FAIR      72  43  35 S12       29.70S
LANCASTER      FAIR      71  51  49 S6        29.70F
ZANESVILLE     FAIR      71  56  58 SE7       29.70F
NEW PHILLY     PTSUNNY   72  53  51 E8        29.72F
$$




USA.gov is the U.S. government's official web portal to all federal, state and local government web resources and services.